| time (UTC) | temp C | wind direction | speed KPH | gust KPH | rain 1hr cm | rain 24hr cm | rain mn cm | humidity % | barometer mb |
| 20260504214427 | 22 | 253 | 9.7 | 22.5 | 0.00 | 0.00 | 0.00 | 52 | 1006.4 |
| 20260504213527 | 22 | 230 | 8.0 | 25.7 | 0.00 | 0.00 | 0.00 | 54 | 1006.5 |
| 20260504212628 | 22 | 218 | 4.8 | 25.7 | 0.00 | 0.00 | 0.00 | 56 | 1006.5 |
| 20260504211727 | 21 | 226 | 4.8 | 17.7 | 0.00 | 0.00 | 0.00 | 58 | 1006.4 |
| 20260504210827 | 21 | 229 | 3.2 | 17.7 | 0.00 | 0.00 | 0.00 | 59 | 1006.7 |
| 20260504205927 | 21 | 231 | 6.4 | 22.5 | 0.00 | 0.05 | 0.00 | 60 | 1006.9 |
| 20260504205027 | 21 | 202 | 3.2 | 12.9 | 0.00 | 0.05 | 0.00 | 61 | 1006.3 |
| 20260504203227 | 20 | 234 | 6.4 | 17.7 | 0.00 | 0.05 | 0.00 | 62 | 1007.9 |
| 20260504202327 | 21 | 236 | 9.7 | 20.9 | 0.00 | 0.05 | 0.00 | 61 | 1007.7 |
| 20260504201428 | 21 | 230 | 9.7 | 24.1 | 0.00 | 0.05 | 0.00 | 61 | 1008.1 |
| 20260504200527 | 21 | 226 | 4.8 | 22.5 | 0.00 | 0.05 | 0.00 | 61 | 1007.4 |
| 20260504195627 | 21 | 228 | 8.0 | 17.7 | 0.00 | 0.05 | 0.00 | 60 | 1007.6 |
| 20260504194727 | 21 | 200 | 4.8 | 16.1 | 0.00 | 0.05 | 0.00 | 61 | 1007.3 |
| 20260504193827 | 20 | 205 | 6.4 | 19.3 | 0.00 | 0.05 | 0.00 | 61 | 1007.6 |
| 20260504191126 | 21 | 240 | 11.3 | 32.2 | 0.00 | 0.05 | 0.00 | 59 | 1008.7 |
| 20260504190228 | 21 | 243 | 11.3 | 35.4 | 0.00 | 0.05 | 0.00 | 59 | 1008.5 |
| 20260504185328 | 21 | 238 | 8.0 | 25.7 | 0.00 | 0.05 | 0.00 | 59 | 1008.7 |
| 20260504184427 | 21 | 240 | 9.7 | 30.6 | 0.00 | 0.05 | 0.00 | 58 | 1008.4 |
| 20260504183527 | 21 | 231 | 8.0 | 20.9 | 0.00 | 0.05 | 0.00 | 58 | 1008.4 |
| 20260504182626 | 22 | 236 | 9.7 | 22.5 | 0.00 | 0.05 | 0.00 | 56 | 1008.1 |
| 20260504181727 | 22 | 238 | 6.4 | 27.4 | 0.00 | 0.05 | 0.00 | 56 | 1008.1 |
| 20260504180826 | 22 | 231 | 6.4 | 19.3 | 0.00 | 0.05 | 0.00 | 58 | 1008.0 |
| 20260504175926 | 22 | 232 | 9.7 | 22.5 | 0.00 | 0.05 | 0.00 | 57 | 1007.5 |
| 20260504175026 | 21 | 230 | 8.0 | 24.1 | 0.00 | 0.05 | 0.00 | 58 | 1007.7 |
| 20260504174126 | 21 | 230 | 8.0 | 24.1 | 0.00 | 0.05 | 0.00 | 58 | 1007.6 |
| 20260504173226 | 21 | 225 | 9.7 | 25.7 | 0.00 | 0.05 | 0.00 | 59 | 1007.7 |
| 20260504172326 | 21 | 229 | 8.0 | 29.0 | 0.00 | 0.05 | 0.00 | 58 | 1008.0 |
| 20260504171426 | 21 | 221 | 6.4 | 20.9 | 0.00 | 0.05 | 0.00 | 58 | 1008.0 |
| 20260504160226 | 20 | 222 | 3.2 | 14.5 | 0.00 | 0.05 | 0.00 | 59 | 1008.4 |
| 20260504150827 | 18 | 207 | 4.8 | 17.7 | 0.00 | 0.05 | 0.00 | 61 | 1008.9 |
| 20260504140527 | 16 | 209 | 8.0 | 19.3 | 0.00 | 0.05 | 0.00 | 63 | 1009.4 |
| 20260504130227 | 14 | 196 | 4.8 | 16.1 | 0.00 | 0.05 | 0.00 | 66 | 1009.8 |
| 20260504110526 | 8 | 0 | 0.0 | 0.0 | 0.00 | 0.05 | 0.00 | 75 | 1009.4 |
| 20260504100226 | 8 | 0 | 0.0 | 0.0 | 0.00 | 0.05 | 0.00 | 73 | 1009.9 |
| 20260504081425 | 10 | 173 | 0.0 | 4.8 | 0.00 | 0.05 | 0.00 | 68 | 1010.7 |
| 20260504080525 | 10 | 173 | 0.0 | 3.2 | 0.00 | 0.05 | 0.00 | 67 | 1010.6 |
| 20260504045625 | 12 | 181 | 1.6 | 9.7 | 0.00 | 0.05 | 0.00 | 61 | 1012.2 |
| 20260504044725 | 12 | 178 | 1.6 | 8.0 | 0.00 | 0.05 | 0.00 | 61 | 1012.3 |
| 20260504043826 | 12 | 184 | 0.0 | 8.0 | 0.00 | 0.05 | 0.00 | 61 | 1012.4 |
| 20260504042025 | 12 | 178 | 1.6 | 9.7 | 0.00 | 0.05 | 0.00 | 62 | 1012.5 |
| 20260504041125 | 12 | 178 | 0.0 | 6.4 | 0.00 | 0.05 | 0.00 | 62 | 1012.6 |
| 20260504040225 | 12 | 179 | 0.0 | 6.4 | 0.00 | 0.05 | 0.00 | 62 | 1012.5 |
| 20260504035325 | 12 | 175 | 1.6 | 11.3 | 0.00 | 0.05 | 0.05 | 63 | 1012.5 |
| 20260504034426 | 12 | 182 | 1.6 | 9.7 | 0.00 | 0.05 | 0.05 | 63 | 1012.6 |
| 20260504033526 | 12 | 174 | 0.0 | 9.7 | 0.00 | 0.05 | 0.05 | 63 | 1012.6 |
| 20260504031725 | 11 | 182 | 1.6 | 11.3 | 0.00 | 0.05 | 0.05 | 64 | 1012.8 |
| 20260504030825 | 11 | 158 | 0.0 | 3.2 | 0.00 | 0.05 | 0.05 | 65 | 1012.8 |
| 20260504025926 | 11 | 0 | 0.0 | 0.0 | 0.00 | 0.05 | 0.05 | 66 | 1012.9 |
| 20260504025025 | 11 | 0 | 0.0 | 0.0 | 0.00 | 0.05 | 0.05 | 67 | 1012.9 |
| 20260504024125 | 11 | 0 | 0.0 | 0.0 | 0.00 | 0.05 | 0.05 | 68 | 1013.0 |
| 20260504023225 | 11 | 0 | 0.0 | 0.0 | 0.00 | 0.05 | 0.05 | 69 | 1013.1 |
| 20260504022325 | 11 | 0 | 0.0 | 0.0 | 0.00 | 0.05 | 0.05 | 69 | 1013.2 |
| 20260504021426 | 11 | 191 | 0.0 | 3.2 | 0.00 | 0.05 | 0.05 | 68 | 1013.2 |
| 20260504020525 | 11 | 191 | 0.0 | 4.8 | 0.00 | 0.05 | 0.05 | 68 | 1013.2 |
| 20260504015625 | 11 | 191 | 0.0 | 4.8 | 0.00 | 0.05 | 0.05 | 68 | 1013.1 |
| 20260504014725 | 11 | 191 | 0.0 | 6.4 | 0.00 | 0.05 | 0.05 | 69 | 1013.1 |
| 20260504013826 | 11 | 0 | 0.0 | 0.0 | 0.00 | 0.05 | 0.05 | 69 | 1013.0 |
| 20260504012925 | 11 | 0 | 0.0 | 0.0 | 0.00 | 0.05 | 0.05 | 69 | 1012.9 |
| 20260504012025 | 11 | 0 | 0.0 | 0.0 | 0.00 | 0.05 | 0.05 | 69 | 1013.0 |
| 20260504011125 | 11 | 0 | 0.0 | 0.0 | 0.00 | 0.05 | 0.05 | 70 | 1012.9 |
| 20260504010224 | 11 | 0 | 0.0 | 0.0 | 0.00 | 0.05 | 0.05 | 70 | 1013.1 |
| 20260504005326 | 11 | 0 | 0.0 | 0.0 | 0.00 | 0.05 | 0.05 | 70 | 1013.0 |
| 20260504004425 | 11 | 0 | 0.0 | 0.0 | 0.00 | 0.05 | 0.05 | 69 | 1013.2 |
| 20260504003525 | 11 | 0 | 0.0 | 0.0 | 0.00 | 0.05 | 0.05 | 68 | 1013.0 |
| 20260504001724 | 11 | 0 | 0.0 | 0.0 | 0.00 | 0.05 | 0.05 | 69 | 1013.0 |
| 20260504000826 | 11 | 0 | 0.0 | 0.0 | 0.00 | 0.05 | 0.05 | 69 | 1013.1 |
| 20260503235924 | 11 | 0 | 0.0 | 0.0 | 0.00 | 0.05 | 0.05 | 68 | 1013.0 |
| 20260503235024 | 11 | 100 | 0.0 | 9.7 | 0.00 | 0.05 | 0.05 | 68 | 1012.8 |
| 20260503234125 | 11 | 165 | 1.6 | 11.3 | 0.00 | 0.05 | 0.05 | 68 | 1012.8 |
| 20260503233224 | 11 | 152 | 1.6 | 9.7 | 0.00 | 0.05 | 0.05 | 68 | 1012.8 |
| 20260503232324 | 11 | 155 | 0.0 | 9.7 | 0.00 | 0.05 | 0.05 | 70 | 1012.8 |
| 20260503231424 | 11 | 121 | 0.0 | 8.0 | 0.00 | 0.05 | 0.05 | 70 | 1013.1 |
| 20260503225625 | 11 | 0 | 0.0 | 0.0 | 0.00 | 0.05 | 0.05 | 71 | 1013.8 |
| 20260503224725 | 11 | 0 | 0.0 | 0.0 | 0.00 | 0.05 | 0.05 | 72 | 1014.0 |
| 20260503223824 | 11 | 0 | 0.0 | 0.0 | 0.00 | 0.05 | 0.05 | 73 | 1014.1 |
| 20260503222924 | 11 | 0 | 0.0 | 0.0 | 0.00 | 0.05 | 0.05 | 74 | 1014.2 |
| 20260503222024 | 11 | 0 | 0.0 | 0.0 | 0.00 | 0.05 | 0.05 | 74 | 1014.6 |
| 20260503221124 | 11 | 0 | 0.0 | 0.0 | 0.00 | 0.05 | 0.05 | 74 | 1014.8 |
| 20260503220224 | 11 | 0 | 0.0 | 0.0 | 0.03 | 0.05 | 0.05 | 74 | 1014.8 |